Regional Weather Roundup
Issued by NWS

Home | Current Version | Previous Version | Text Only | Print | Product List | Glossary Off
Versions: 1 2 3 4 5 6 7 8 9 10 11 12 13 14 15 16 17 18 19 20 21 22 23 24 25 26 27 28 29 30 31 32 33 34 35 36 37 38 39 40 41 42 43 44 45 46 47 48 49 50

000
ASUS43 KFSD 300710
RWRSD

WEATHER ROUNDUP FOR SOUTH DAKOTA
NATIONAL WEATHER SERVICE SIOUX FALLS SD
200 AM CDT THU JUL 30 2015

NOTE: "FAIR" INDICATES FEW OR NO CLOUDS BELOW 12,000 FEET WITH NO
SIGNIFICANT WEATHER AND/OR OBSTRUCTIONS TO VISIBILITY.


SDZ001>005-009-010-012>017-300800-
NORTHWEST AND NORTH CENTRAL SOUTH DAKOTA

CITY           SKY/WX    TMP DP  RH WIND       PRES   REMARKS
BUFFALO          N/A     59  41  51 W6        30.14R
FAITH            N/A     67  39  35 CALM      30.18R
MOBRIDGE       CLEAR     57  56  96 CALM      30.10S
$$

SDZ012>016-024>037-041>051-057-063-072>074-300800-
SOUTHWEST AND SOUTH CENTRAL SOUTH DAKOTA

CITY           SKY/WX    TMP DP  RH WIND       PRES   REMARKS
RAPID CTY ARPT CLEAR     57  47  69 NW7       30.21S
PIERRE         CLEAR     63  49  60 S5        30.12R
CUSTER         CLEAR     51  40  65 NW6       30.35S
ELLSWORTH AFB  CLEAR     59  47  65 VRB3      30.21R
PHILIP         CLEAR     59  53  80 N6        30.16R
PINE RIDGE     CLEAR     56  49  77 CALM      30.22R
SPEARFISH      FAIR      57  41  54 SW3       30.27S
WINNER         PTSUNNY   72  51  47 S6        30.16S
$$

SDZ004>011-016>023-039-040-300800-
NORTHEAST SOUTH DAKOTA

CITY           SKY/WX    TMP DP  RH WIND       PRES   REMARKS
ABERDEEN       CLEAR     57  54  89 SW5       30.08R
WATERTOWN      CLEAR     60  52  74 W8        30.09S
BROOKINGS      CLEAR     61  54  77 CALM      30.13S
SISSETON         N/A     66  52  60 W10       30.03S
$$

SDZ017-020-022-023-036>040-048>070-300800-
SOUTHEAST SOUTH DAKOTA

CITY           SKY/WX    TMP DP  RH WIND       PRES   REMARKS
SIOUX FALLS    PTCLDY    62  58  86 CALM      30.12S
HURON          CLEAR     62  56  80 SW8       30.10R
CHAMBERLAIN    CLOUDY    64  58  80 CALM      30.14S
MITCHELL       CLEAR     61  56  83 CALM      30.12R
YANKTON        CLEAR     68  55  64 SW8       30.12R
$$

ABBREVIATIONS USED IN REMARKS
   TC - TEMPERATURE IN CELSIUS
  WCI - WIND CHILL INDEX
   HX - HEAT INDEX
  VSB - VISIBILITY




USA.gov is the U.S. government's official web portal to all federal, state and local government web resources and services.